FW7773 Weather Reports


time (UTC)temp
C
wind
direction
speed
KPH
gust
KPH
rain 1hr
cm
rain 24hr
cm
rain mn
cm
humidity
%
barometer
mb
20260505213051 23 296 9.7 17.7 0.00 0.00 0.00 64 1016.4
20260505211529 23 30 8.0 20.9 0.00 0.00 0.00 65 1016.3
20260505204545 23 232 6.4 16.1 0.00 0.00 0.00 65 1016.2
20260505203014 23 271 8.0 17.7 0.00 0.00 0.00 66 1016.2
20260505201551 23 182 9.7 19.3 0.00 0.00 0.00 66 1016.3
20260505200026 23 171 8.0 19.3 0.00 0.00 0.00 64 1016.6
20260505194503 24 221 8.0 22.5 0.00 0.00 0.00 64 1016.9
20260505193042 25 51 8.0 17.7 0.00 0.00 0.00 62 1017.3
20260505191509 24 177 8.0 20.9 0.00 0.00 0.00 63 1017.6
20260505190045 24 185 8.0 17.7 0.00 0.00 0.00 62 1017.7
20260505184518 24 200 8.0 17.7 0.00 0.00 0.00 60 1017.6
20260505183053 23 196 8.0 22.5 0.00 0.00 0.00 60 1017.4
20260505181529 23 161 9.7 19.3 0.00 0.00 0.00 63 1017.6
20260505180100 23 196 8.0 17.7 0.00 0.00 0.00 64 1017.4
20260505174531 23 172 8.0 22.5 0.00 0.00 0.00 65 1017.3
20260505173005 23 84 6.4 22.5 0.00 0.00 0.00 65 1017.4
20260505171543 23 221 9.7 19.3 0.00 0.00 0.00 65 1017.8
20260505170012 23 200 8.0 19.3 0.00 0.00 0.00 65 1017.9
20260505164558 23 115 6.4 19.3 0.00 0.00 0.00 65 1018.0
20260505163020 23 240 8.0 20.9 0.00 0.00 0.00 66 1018.0
20260505161559 23 169 9.7 20.9 0.00 0.00 0.00 65 1018.2
20260505153036 23 242 8.0 24.1 0.00 0.00 0.00 63 1018.3
20260505151508 23 235 6.4 19.3 0.00 0.00 0.00 64 1018.1
20260505124559 21 178 4.8 9.7 0.00 0.00 0.00 75 1017.5
20260505123023 21 247 1.6 9.7 0.00 0.00 0.00 76 1017.4
20260505121551 21 355 3.2 8.0 0.00 0.00 0.00 77 1017.3
20260505120016 20 242 0.0 3.2 0.00 0.00 0.00 78 1017.2
20260505114537 19 196 0.0 6.4 0.00 0.00 0.00 80 1017.0
20260505113009 18 211 0.0 4.8 0.00 0.00 0.00 82 1017.0
20260505111543 18 24 0.0 6.4 0.00 0.00 0.00 85 1016.8
20260505101506 17 267 1.6 4.8 0.00 0.00 0.00 84 1016.3
20260505100043 17 293 0.0 4.8 0.00 0.00 0.00 84 1016.2
20260505094519 17 180 0.0 3.2 0.00 0.00 0.00 84 1016.2
20260505093102 17 288 0.0 0.0 0.00 0.00 0.00 84 1016.0
20260505091530 17 178 0.0 4.8 0.00 0.00 0.00 84 1016.0
20260505090001 17 229 0.0 6.4 0.00 0.00 0.00 84 1015.8
20260505084544 17 187 0.0 6.4 0.00 0.00 0.00 83 1015.7
20260505083009 18 37 1.6 9.7 0.00 0.00 0.00 82 1015.7
20260505081551 18 205 1.6 11.3 0.00 0.00 0.00 81 1015.5
20260505080022 18 274 3.2 11.3 0.00 0.00 0.00 82 1015.5
20260505074556 18 277 3.2 9.7 0.00 0.00 0.00 83 1015.5
20260505073026 18 278 1.6 9.7 0.00 0.00 0.00 82 1015.5
20260505071602 18 346 0.0 8.0 0.00 0.00 0.00 82 1015.4
20260505070041 18 138 4.8 12.9 0.00 0.00 0.00 83 1015.7
20260505064504 18 187 3.2 9.7 0.00 0.00 0.00 82 1015.7
20260505063039 18 273 1.6 11.3 0.00 0.00 0.00 81 1015.8
20260505061510 19 141 3.2 16.1 0.00 0.00 0.00 79 1016.1
20260505060039 19 262 4.8 16.1 0.00 0.00 0.00 80 1016.3
20260505054506 18 218 1.6 12.9 0.00 0.00 0.00 81 1016.4
20260505053105 18 217 1.6 14.5 0.00 0.00 0.00 81 1016.6
20260505051508 18 355 4.8 12.9 0.00 0.00 0.00 83 1016.7
20260505041515 18 327 0.0 8.0 0.00 0.00 0.00 82 1016.9
20260505040044 18 45 0.0 6.4 0.00 0.00 0.00 81 1017.0
20260505034524 18 60 0.0 8.0 0.00 0.00 0.00 79 1016.9
20260505033055 18 157 0.0 6.4 0.00 0.00 0.00 79 1016.8
20260505031529 18 170 0.0 8.0 0.00 0.00 0.00 79 1016.9
20260505030006 18 211 0.0 8.0 0.00 0.00 0.00 79 1016.9
20260505024543 18 155 0.0 6.4 0.00 0.00 0.00 79 1016.9
20260505023018 18 280 1.6 8.0 0.00 0.00 0.00 78 1016.8
20260505021558 18 265 0.0 3.2 0.00 0.00 0.00 77 1016.8
20260505020033 19 194 1.6 6.4 0.00 0.00 0.00 75 1016.7
20260505014510 19 261 0.0 6.4 0.00 0.00 0.00 73 1016.6
20260505013046 19 201 1.6 9.7 0.00 0.00 0.00 72 1016.7
20260505011544 19 35 1.6 12.9 0.00 0.00 0.00 71 1016.5
20260505010003 20 223 0.0 8.0 0.00 0.00 0.00 70 1016.5
20260505004538 20 200 1.6 12.9 0.00 0.00 0.00 69 1016.3
20260505003010 20 162 4.8 14.5 0.00 0.00 0.00 68 1016.3
20260505001604 20 217 3.2 12.9 0.00 0.00 0.00 67 1016.3
20260505000031 20 200 3.2 14.5 0.00 0.00 0.00 66 1016.4
20260504234600 20 185 3.2 11.3 0.00 0.00 0.00 64 1016.3
20260504233042 21 178 6.4 19.3 0.00 0.00 0.00 61 1016.1
20260504231511 21 225 9.7 20.9 0.00 0.00 0.00 57 1016.2
20260504230045 21 259 9.7 22.5 0.00 0.00 0.00 57 1016.1
20260504224517 22 200 6.4 24.1 0.00 0.00 0.00 57 1016.3
20260504223054 22 221 9.7 19.3 0.00 0.00 0.00 55 1016.3
20260504221528 22 255 9.7 25.7 0.00 0.00 0.00 54 1016.4
20260504220001 22 264 6.4 19.3 0.00 0.00 0.00 56 1016.4
20260504214538 22 211 11.3 22.5 0.00 0.00 0.00 57 1016.3